Location: *
(45.5224°N, 122.7471°W)
Time: 04:12:24
(UTC+00:00)

STARLINK-1058 - Pass Details

Date: 09 April 2020
Orbit: 548 x 551 km, 53.0° (Epoch: 25 May)

Event Time Altitude Azimuth Distance (km) Brightness Sun altitude
Exits shadow 12:01:05 32° 246° (WSW) 947 4.2 -16.2°
Maximum altitude 12:02:54 80° 328° (NNW) 563 3.6 -15.9°
Drops below altitude 10° 12:07:04 10° 57° (ENE) 1,829 7.7 -15.3°
Sets 12:09:18 0° 59° (ENE) 2,725 9.1 -14.9°
